[[{"header":{"parameterUnit":"m.s-1","parameterCategory":1,"la1":30.2991,"la2":30.254,"lo1":-89.0895,"lo2":-89.0444,"dy":0.0017,"dx":0.0017,"nx":28,"ny":28,"refTime":"2023-07-19T21:00:00:Z","depth":0,"parameterNumber":2,"parameterNumberName":"U-component_of_WINDS"},"data":[0,0,0,0,0,0,0,0,0,0,0,0,0,0,0,0,0,0,0,0,0,0,0,0,0,0,0,0,0,0,0,0,0,0,0,0,0,0,0,0,0,0,0,0,0,0,0,0,0,0,0,0,0,0,0,0,0,0,2.959,2.959,0,2.9596,2.9596,2.9596,2.9533,2.9531,2.9529,2.9528,2.9533,2.9535,2.9536,0,0,0,0,0,0,0,0,0,0,0,0,0,2.9522,2.9523,2.959,2.959,2.9591,2.9596,2.9596,2.9596,2.9533,2.9531,2.9529,2.9527,2.9532,2.9534,2.9536,0,0,0,0,0,0,0,0,0,0,0,0,0,2.9542,2.9524,2.959,2.956,2.9557,2.9596,2.9596,2.9596,2.9534,2.9531,2.9528,2.9526,2.9532,2.9534,2.9537,2.9605,0,0,2.9545,2.9546,0,0,0,0,0,0,0,0,2.9541,2.9545,2.9564,2.9562,2.9559,2.9561,2.9574,2.9599,2.9534,2.9543,2.9528,2.9525,2.9544,2.9546,2.9552,2.9605,2.9606,2.9545,2.9547,2.9548,2.9548,0,0,0,0,0,0,0,2.954,2.9544,2.9593,2.9565,2.9561,2.9545,2.9545,2.9578,2.9558,2.9542,2.9537,2.9539,2.9542,2.955,2.9552,2.9606,2.9545,2.9547,2.9549,2.955,2.971,2.9713,0,0,0,0,0,0,2.9543,2.9543,2.9592,2.9593,2.9543,2.9548,2.9548,2.9563,2.9557,2.9554,2.9541,2.9536,2.9547,2.9549,2.9552,2.9628,2.9548,2.955,2.9552,2.9707,2.9711,2.9714,0,0,0,0,0,0,2.9542,2.9548,2.9592,2.9567,2.9571,2.9552,2.9569,2.9565,2.9572,2.9557,2.9553,2.9553,2.9545,2.9548,2.9591,2.9627,2.9551,2.9554,2.9704,2.9708,2.9712,2.9783,0,0,0,0,0,0,2.954,2.9548,2.9574,2.9568,2.9573,2.9632,2.9572,2.9567,2.9577,2.957,2.9567,2.9564,2.9543,2.9588,2.9594,2.963,2.9556,2.9701,2.9706,2.9711,2.9777,2.9789,2.9799,0,0,0,0,0,2.9538,2.9595,2.9576,2.9582,2.9606,2.9635,2.9637,2.9613,2.958,2.9606,2.9595,2.9564,2.9623,2.9593,2.9599,2.9636,2.9698,2.9705,2.971,2.9772,2.9787,2.9799,0,0,0,0,0,0,2.9607,2.9594,2.9572,2.963,2.9634,2.9624,2.9656,2.9629,2.9643,2.9636,2.9605,2.9604,2.9651,2.9649,2.9615,2.97,2.9655,2.9662,2.97,2.9713,2.9724,2.9722,2.9558,0,0,0,0,0,2.9629,2.9654,2.9641,2.9692,2.9695,2.9676,2.9687,2.9668,2.9671,2.9672,2.9665,2.9668,2.9687,2.97,2.9718,2.9777,2.9773,2.9806,2.9816,2.9825,2.9831,2.9859,2.9872,2.9733,2.9733,2.9733,0,0,2.9674,2.967,2.9688,2.9706,2.9707,2.9732,2.9677,2.9707,2.9725,2.9677,2.9715,2.9711,2.9712,2.9763,2.9785,2.9762,2.9869,2.9833,2.984,2.9841,2.9866,2.9879,2.9891,2.9737,2.9737,2.9736,0,0,2.9769,2.977,2.9811,2.9812,2.9814,2.9799,2.9809,2.9803,2.9798,2.9837,2.9799,2.982,2.9855,2.9856,2.9861,2.9954,2.9923,2.996,3.0015,3.0042,3.0053,3.0063,3.0092,3.0103,2.9967,2.9967,2.9967,0,2.9825,2.9862,2.9835,2.9866,2.9874,2.9831,2.987,2.9873,2.988,2.9886,2.986,2.99,2.9899,2.9947,2.9969,2.9976,2.9984,2.9959,3.0054,3.0063,3.0072,3.0099,3.011,2.9971,2.9971,2.997,2.997,0,2.9928,2.9954,2.9987,2.9993,3.0005,3.0041,3.0018,3.0033,3.0012,3.0,3.0038,3.0035,3.0048,3.0059,3.004,3.0104,3.0089,3.006,3.0013,3.0089,3.0114,3.0125,2.9977,2.9976,2.9974,2.9973,0,0,3.0066,3.0056,3.0068,3.0068,3.0066,3.0085,3.0118,3.013,3.0142,3.0149,3.0173,3.0202,3.0173,3.0179,3.016,3.0184,3.0253,3.0151,3.015,3.0167,3.0318,3.0338,3.0351,3.0234,3.0236,3.0237,3.0317,0,3.0155,3.0209,3.0185,3.0241,3.0263,3.0221,3.0249,3.025,3.024,3.0255,3.0244,3.0263,3.0227,3.0229,3.0252,3.024,3.0282,3.0234,3.0254,3.0255,3.0251,3.0364,3.0386,3.0461,3.0327,3.0328,3.033,0,3.0266,3.0275,3.0333,3.0323,3.0331,3.0356,3.0364,3.0381,3.038,3.037,3.0376,3.035,3.0379,3.0335,3.0374,3.0341,3.0348,3.0343,3.0346,3.0344,3.0294,3.0362,3.0484,3.0494,3.0346,3.0344,3.0343,0,3.0355,3.0382,3.0419,3.0422,3.0412,3.043,3.0427,3.0424,3.0432,3.0439,3.0443,3.0455,3.046,3.0468,3.0445,3.0416,3.0485,3.044,3.0476,3.0476,3.049,3.0488,3.0611,3.05,3.05,3.05,3.05,0,3.0455,3.0491,3.0458,3.0481,3.0519,3.0491,3.053,3.0522,3.0519,3.0538,3.0504,3.0523,3.0493,3.0508,3.049,3.0522,3.0526,3.0517,3.0512,3.0518,3.0519,3.052,3.0513,3.0503,3.0502,3.0502,3.0501,0,3.056,3.0541,3.0577,3.0565,3.0562,3.0591,3.0579,3.0599,3.0586,3.061,3.0614,3.0593,3.0609,3.0587,3.0602,3.059,3.0632,3.0621,3.0632,3.0627,3.0662,3.0658,3.0787,3.0801,3.0685,3.0686,3.0687,0,3.0623,3.065,3.0639,3.0649,3.0647,3.0665,3.0672,3.0645,3.0654,3.0653,3.0672,3.0685,3.0693,3.072,3.0705,3.0715,3.0701,3.0746,3.0702,3.0707,3.0697,3.0694,3.0695,3.0754,3.0755,3.0756,3.0757,0,3.0736,3.0724,3.0736,3.0744,3.0753,3.0758,3.0761,3.0771,3.0742,3.0754,3.0769,3.0775,3.0788,3.08,3.0806,3.0802,3.0774,3.0771,3.0779,3.0785,3.0789,3.0783,3.0652,3.0768,3.0767,3.0766,3.0765,3.0765,3.0819,3.0839,3.0833,3.0847,3.0846,3.0848,3.0864,3.0853,3.0865,3.0872,3.0856,3.0875,3.087,3.0875,3.0874,3.0887,3.0867,3.088,3.0882,3.0885,3.0888,3.079,3.0888,3.0888,3.0888,3.0887,3.0887,0,3.0926,3.092,3.0933,3.0936,3.0946,3.092,3.0921,3.093,3.0947,3.0945,3.0953,3.0969,3.098,3.0966,3.0974,3.0987,3.0974,3.099,3.0987,3.0986,3.0907,3.0898,3.1,3.1,3.1,3.1,3.1,3.1,3.0983,3.1013,3.1001,3.103,3.1024,3.1041,3.1043,3.1044,3.1042,3.1061,3.1069,3.106,3.1053,3.106,3.1068,3.1063,3.1066,3.1086,3.1076,3.1003,3.0992,3.0981,3.0971,3.1087,3.1088,3.1153,3.1153,3.1154]},{"header":{"parameterUnit":"m.s-1","parameterCategory":1,"la1":30.2991,"la2":30.254,"lo1":-89.0895,"lo2":-89.0444,"dy":0.0017,"dx":0.0017,"nx":28,"ny":28,"refTime":"2023-07-19T21:00:00:Z","depth":0,"parameterNumber":3,"parameterNumberName":"V-component_of_WINDS"},"data":[0,0,0,0,0,0,0,0,0,0,0,0,0,0,0,0,0,0,0,0,0,0,0,0,0,0,0,0,0,0,0,0,0,0,0,0,0,0,0,0,0,0,0,0,0,0,0,0,0,0,0,0,0,0,0,0,0,0,3.0393,3.0395,0,3.0507,3.0508,3.051,3.0502,3.0501,3.0499,3.0497,3.0613,3.0617,3.0622,0,0,0,0,0,0,0,0,0,0,0,0,0,3.0167,3.0171,3.0393,3.0395,3.0396,3.0507,3.0508,3.051,3.0503,3.05,3.0498,3.0497,3.0611,3.0617,3.0622,0,0,0,0,0,0,0,0,0,0,0,0,0,3.0272,3.0173,3.0393,3.0406,3.0408,3.0507,3.0508,3.051,3.0503,3.05,3.0498,3.0496,3.0609,3.0616,3.0623,3.0716,0,0,3.0644,3.0647,0,0,0,0,0,0,0,0,3.0266,3.028,3.0403,3.0405,3.0408,3.0488,3.0471,3.0579,3.0504,3.0467,3.0497,3.0494,3.0573,3.0583,3.061,3.0721,3.0726,3.0645,3.0649,3.0652,3.0654,0,0,0,0,0,0,0,3.0259,3.0275,3.0438,3.0404,3.0408,3.0405,3.0417,3.0491,3.0533,3.047,3.047,3.0483,3.0574,3.0603,3.0612,3.0728,3.0645,3.0651,3.0655,3.0658,3.0918,3.0921,0,0,0,0,0,0,3.0249,3.0269,3.0435,3.0442,3.0329,3.0411,3.0425,3.0465,3.0532,3.054,3.0485,3.0482,3.0592,3.0604,3.0616,3.0728,3.0652,3.0658,3.0662,3.0916,3.0919,3.0922,0,0,0,0,0,0,3.0244,3.0264,3.043,3.0355,3.0376,3.0418,3.0463,3.0468,3.0497,3.0543,3.055,3.0507,3.0591,3.0607,3.0691,3.0732,3.0661,3.0668,3.0912,3.0917,3.0921,3.0953,0,0,0,0,0,0,3.0237,3.0262,3.0298,3.0356,3.038,3.0503,3.0465,3.0472,3.0509,3.0507,3.0566,3.0573,3.059,3.068,3.0697,3.074,3.0673,3.0909,3.0914,3.0919,3.0948,3.0958,3.0966,0,0,0,0,0,3.0229,3.0303,3.03,3.032,3.0427,3.0506,3.052,3.0538,3.0513,3.0549,3.0578,3.0572,3.0725,3.0689,3.0708,3.0754,3.0906,3.0913,3.0919,3.0944,3.0956,3.0965,0,0,0,0,0,0,3.0249,3.0311,3.0309,3.0403,3.0449,3.0504,3.0551,3.0549,3.0603,3.0598,3.0618,3.0631,3.0715,3.0743,3.0702,3.0846,3.0812,3.0822,3.0825,3.0836,3.0844,3.0836,3.0679,0,0,0,0,0,3.0265,3.0324,3.0375,3.0453,3.0477,3.051,3.0545,3.0555,3.0603,3.0622,3.0658,3.0704,3.0763,3.0801,3.0857,3.0952,3.0964,3.0992,3.1001,3.1008,3.1017,3.1067,3.108,3.0943,3.0942,3.0942,0,0,3.0297,3.0338,3.0375,3.0458,3.0495,3.0555,3.0526,3.0592,3.0636,3.0632,3.0713,3.0741,3.0794,3.0883,3.0924,3.0909,3.1057,3.1016,3.1021,3.1026,3.1075,3.1088,3.1099,3.0947,3.0946,3.0945,0,0,3.0387,3.0425,3.0494,3.0531,3.0587,3.0608,3.0624,3.0679,3.0697,3.0779,3.0777,3.0829,3.093,3.0968,3.1,3.1101,3.1096,3.1119,3.1164,3.1213,3.1224,3.1233,3.1268,3.1281,3.1127,3.1128,3.1128,0,3.0421,3.0512,3.0529,3.0595,3.0631,3.0629,3.0698,3.0733,3.0805,3.0829,3.0811,3.0936,3.0971,3.1068,3.1093,3.112,3.1138,3.1113,3.1221,3.1231,3.124,3.1273,3.1287,3.113,3.113,3.1129,3.1129,0,3.0549,3.0612,3.0661,3.073,3.0771,3.0838,3.0865,3.0904,3.091,3.0932,3.1015,3.1057,3.1121,3.1145,3.1152,3.1243,3.1231,3.1217,3.1183,3.1255,3.1287,3.13,3.1133,3.1132,3.1132,3.1131,0,0,3.0656,3.0732,3.075,3.078,3.084,3.0889,3.0955,3.1018,3.1051,3.1099,3.1154,3.1238,3.1225,3.1261,3.1271,3.1314,3.139,3.1294,3.1296,3.131,3.1491,3.1502,3.1516,3.1387,3.1389,3.1392,3.1486,0,3.0752,3.0869,3.0886,3.0989,3.1047,3.1045,3.1102,3.1145,3.1167,3.1218,3.1243,3.1302,3.128,3.1302,3.1344,3.1372,3.1427,3.1365,3.1437,3.144,3.1424,3.1533,3.1545,3.1633,3.1499,3.1501,3.1503,0,3.0879,3.093,3.104,3.109,3.1115,3.1166,3.1224,3.1273,3.1321,3.1334,3.1374,3.1378,3.1445,3.1408,3.15,3.1458,3.1488,3.1506,3.151,3.1517,3.1476,3.1543,3.1661,3.1674,3.1523,3.1521,3.152,0,3.0945,3.1041,3.1119,3.1145,3.1206,3.1242,3.1269,3.1314,3.135,3.14,3.1423,3.148,3.1512,3.1555,3.1574,3.1546,3.1664,3.163,3.1676,3.1676,3.1701,3.1699,3.1825,3.1721,3.1721,3.1721,3.1721,0,3.1049,3.1116,3.1149,3.1196,3.127,3.1287,3.136,3.1386,3.1425,3.1477,3.1479,3.1527,3.1549,3.1601,3.1616,3.1689,3.1703,3.1715,3.1718,3.1714,3.1713,3.1734,3.1729,3.1725,3.1724,3.1723,3.1722,0,3.1135,3.116,3.1244,3.1295,3.1309,3.1361,3.1404,3.1449,3.147,3.1536,3.1552,3.1585,3.1646,3.1669,3.1743,3.1753,3.1836,3.1835,3.182,3.1821,3.1866,3.1861,3.201,3.203,3.1913,3.1914,3.1915,0,3.12,3.1251,3.1307,3.1342,3.137,3.1426,3.1462,3.1481,3.1518,3.1575,3.1613,3.1673,3.1722,3.1818,3.1849,3.1904,3.1904,3.1952,3.1912,3.1907,3.1904,3.19,3.1905,3.196,3.1961,3.1962,3.1963,0,3.1312,3.1322,3.1374,3.1431,3.1474,3.1519,3.1563,3.1591,3.1616,3.1658,3.1719,3.1757,3.1832,3.1891,3.1948,3.1975,3.1973,3.1975,3.1988,3.1985,3.1974,3.198,3.184,3.1971,3.197,3.197,3.1969,3.1969,3.1389,3.1434,3.148,3.1537,3.1572,3.1613,3.1657,3.1684,3.1735,3.1798,3.1805,3.1871,3.1915,3.1991,3.2021,3.2071,3.2059,3.2078,3.2083,3.2088,3.2091,3.1966,3.2082,3.2082,3.2082,3.2081,3.2081,0,3.1501,3.153,3.1583,3.1644,3.1689,3.1682,3.173,3.1768,3.1826,3.1867,3.1915,3.1985,3.2042,3.2076,3.2132,3.2166,3.2167,3.2181,3.2178,3.2184,3.2099,3.2082,3.2179,3.2179,3.2179,3.2179,3.2179,3.2179,3.1564,3.1638,3.1653,3.1744,3.1772,3.1836,3.1864,3.1901,3.1934,3.2012,3.2059,3.208,3.2119,3.2178,3.2229,3.2238,3.2258,3.2273,3.228,3.22,3.219,3.2181,3.2164,3.2278,3.2278,3.2361,3.2362,3.2362]}]]